VE8SKI Weather Reports


time (UTC)temp
C
wind
direction
speed
KPH
gust
KPH
rain 1hr
cm
rain 24hr
cm
rain mn
cm
humidity
%
barometer
mb
20260504060243 -1 51 0.0 0.0 0.00 0.00 0.00 83 1024.1
20260504050740 0 65 0.0 0.0 0.00 0.00 0.00 79 1023.3
20260504050241 0 32 3.2 4.8 0.00 0.00 0.00 79 1023.2
20260504045741 0 44 1.6 3.2 0.00 0.00 0.00 79 1023.1
20260504045238 0 44 3.2 0.0 0.00 0.00 0.00 79 1023.1
20260504044739 0 48 3.2 3.2 0.00 0.00 0.00 78 1023.0
20260504044239 0 35 4.8 6.4 0.00 0.00 0.00 78 1023.0
20260504043739 0 65 3.2 1.6 0.00 0.00 0.00 78 1023.0
20260504043239 0 65 1.6 3.2 0.00 0.00 0.00 78 1022.9
20260504042740 0 32 3.2 1.6 0.00 0.00 0.00 78 1022.9
20260504042237 0 21 3.2 3.2 0.00 0.00 0.00 78 1022.8
20260504041737 0 23 1.6 1.6 0.00 0.00 0.00 78 1022.7
20260504041237 0 27 1.6 1.6 0.00 0.00 0.00 77 1022.7
20260504040738 0 28 1.6 0.0 0.00 0.00 0.00 77 1022.7
20260504040238 0 28 3.2 3.2 0.00 0.00 0.00 77 1022.5
20260504035738 0 48 4.8 1.6 0.00 0.00 0.00 77 1022.5
20260504035236 0 37 3.2 1.6 0.00 0.00 0.00 76 1022.4
20260504034736 0 84 3.2 4.8 0.00 0.00 0.00 76 1022.3
20260504034236 0 51 4.8 3.2 0.00 0.00 0.00 76 1022.3
20260504033737 0 58 3.2 4.8 0.00 0.00 0.00 76 1022.2
20260504033237 0 15 4.8 3.2 0.00 0.00 0.00 76 1022.2
20260504032737 0 59 6.4 3.2 0.00 0.00 0.00 75 1022.1
20260504032235 0 56 4.8 6.4 0.00 0.00 0.00 75 1022.0
20260504031735 0 65 4.8 6.4 0.00 0.00 0.00 74 1022.0
20260504030736 1 38 1.6 1.6 0.00 0.00 0.00 72 1021.9
20260504030236 1 63 3.2 1.6 0.00 0.00 0.00 72 1021.9
20260504025737 1 41 0.0 0.0 0.00 0.00 0.00 72 1021.9
20260504025234 1 65 3.2 1.6 0.00 0.00 0.00 72 1021.8
20260504024734 1 58 4.8 4.8 0.00 0.00 0.00 71 1021.8
20260504024235 1 58 4.8 3.2 0.00 0.00 0.00 70 1021.8
20260504023735 1 39 3.2 3.2 0.00 0.00 0.00 71 1021.7
20260504023236 1 73 4.8 4.8 0.00 0.00 0.00 72 1021.8
20260504022736 1 66 4.8 4.8 0.00 0.00 0.00 72 1021.7
20260504022234 1 46 3.2 3.2 0.00 0.00 0.00 72 1021.7
20260504021734 1 41 3.2 8.0 0.00 0.00 0.00 72 1021.6
20260504021234 1 62 6.4 6.4 0.00 0.00 0.00 72 1021.6
20260504020735 1 94 6.4 6.4 0.00 0.00 0.00 72 1021.5
20260504020235 1 84 4.8 6.4 0.00 0.00 0.00 72 1021.5
20260504015735 1 93 4.8 3.2 0.00 0.00 0.00 72 1021.4
20260504015233 1 59 4.8 6.4 0.00 0.00 0.00 72 1021.4
20260504014733 1 42 6.4 3.2 0.00 0.00 0.00 72 1021.3
20260504014234 1 52 8.0 6.4 0.00 0.00 0.00 71 1021.3
20260504013734 1 63 6.4 3.2 0.00 0.00 0.00 71 1021.3
20260504013234 1 83 4.8 8.0 0.00 0.00 0.00 71 1021.2
20260504012735 1 72 3.2 9.7 0.00 0.00 0.00 72 1021.1
20260504012232 1 48 3.2 1.6 0.00 0.00 0.00 72 1021.1
20260504011733 1 46 6.4 4.8 0.00 0.00 0.00 71 1021.0
20260504011233 1 31 6.4 8.0 0.00 0.00 0.00 72 1020.9
20260504010733 1 68 3.2 8.0 0.00 0.00 0.00 72 1020.9
20260504010234 1 37 4.8 3.2 0.00 0.00 0.00 72 1020.9
20260504005734 1 35 6.4 4.8 0.00 0.00 0.00 71 1020.7
20260504005232 1 62 8.0 4.8 0.00 0.00 0.00 71 1020.7
20260504004732 1 65 8.0 9.7 0.00 0.00 0.00 71 1020.6
20260504004232 1 75 4.8 3.2 0.00 0.00 0.00 71 1020.5
20260504003733 1 58 9.7 6.4 0.00 0.00 0.00 71 1020.5
20260504003233 1 30 9.7 8.0 0.00 0.00 0.00 71 1020.4
20260504002733 1 31 11.3 11.3 0.00 0.00 0.00 71 1020.4
20260504002231 1 21 11.3 8.0 0.00 0.00 0.00 71 1020.3
20260504001732 1 21 11.3 11.3 0.00 0.00 0.00 71 1020.3
20260504001232 1 37 8.0 8.0 0.00 0.00 0.00 71 1020.2
20260504000732 1 20 9.7 8.0 0.00 0.00 0.00 71 1020.1
20260504000234 1 31 11.3 11.3 0.00 0.00 0.00 71 1020.1
20260503235733 1 35 9.7 12.9 0.00 0.00 0.00 71 1020.0
20260503235230 1 105 4.8 3.2 0.00 0.00 0.00 71 1019.9
20260503234731 1 100 8.0 6.4 0.00 0.00 0.00 70 1019.8
20260503234231 1 83 8.0 9.7 0.00 0.00 0.00 71 1019.8
20260503233731 1 105 8.0 3.2 0.00 0.00 0.00 71 1019.7
20260503233232 1 76 8.0 9.7 0.00 0.00 0.00 71 1019.7
20260503232732 1 52 6.4 4.8 0.00 0.00 0.00 71 1019.6
20260503232230 1 111 8.0 8.0 0.00 0.00 0.00 71 1019.7
20260503231730 1 66 6.4 3.2 0.00 0.00 0.00 71 1019.4
20260503231231 1 82 6.4 4.8 0.00 0.00 0.00 71 1019.3
20260503230731 1 34 8.0 12.9 0.00 0.00 0.00 71 1019.2
20260503230231 1 42 8.0 6.4 0.00 0.00 0.00 71 1019.1
20260503225732 1 60 3.2 3.2 0.00 0.00 0.00 71 1019.1
20260503225229 1 69 6.4 6.4 0.00 0.00 0.00 70 1019.0
20260503224730 1 55 6.4 3.2 0.00 0.00 0.00 69 1018.9
20260503224230 1 75 4.8 3.2 0.00 0.00 0.00 69 1018.9
20260503223731 1 120 6.4 4.8 0.00 0.00 0.00 69 1018.7
20260503223231 1 66 4.8 0.0 0.00 0.00 0.00 70 1018.7
20260503222731 1 77 9.7 9.7 0.00 0.00 0.00 69 1018.6
20260503222229 1 91 9.7 9.7 0.00 0.00 0.00 69 1018.6
20260503221729 1 113 3.2 4.8 0.00 0.00 0.00 70 1018.5
20260503221230 1 55 6.4 8.0 0.00 0.00 0.00 70 1018.5
20260503220730 1 48 4.8 6.4 0.00 0.00 0.00 70 1018.3
20260503220230 1 53 9.7 9.7 0.00 0.00 0.00 69 1018.3
20260503215731 1 63 4.8 9.7 0.00 0.00 0.00 69 1018.2
20260503215228 1 28 6.4 6.4 0.00 0.00 0.00 69 1018.2
20260503214729 1 76 6.4 1.6 0.00 0.00 0.00 69 1018.2
20260503214229 1 107 0.0 9.7 0.00 0.00 0.00 69 1018.2
20260503213730 1 27 8.0 6.4 0.00 0.00 0.00 69 1018.2
20260503213230 1 30 8.0 11.3 0.00 0.00 0.00 69 1018.2
20260503212730 1 73 8.0 8.0 0.00 0.00 0.00 68 1018.2
20260503212228 1 42 6.4 4.8 0.00 0.00 0.00 69 1018.1
20260503211728 1 70 6.4 9.7 0.00 0.00 0.00 70 1018.0
20260503211229 1 59 11.3 9.7 0.00 0.00 0.00 69 1018.0
20260503210729 1 100 12.9 6.4 0.00 0.00 0.00 70 1017.9
20260503210229 1 70 9.7 8.0 0.00 0.00 0.00 69 1017.9
20260503205730 1 55 9.7 12.9 0.00 0.00 0.00 69 1017.9
20260503205227 1 82 11.3 14.5 0.00 0.00 0.00 68 1017.9
20260503204728 1 72 9.7 9.7 0.00 0.00 0.00 69 1017.9
20260503204228 1 69 8.0 11.3 0.00 0.00 0.00 70 1017.8
20260503203728 1 1 11.3 11.3 0.00 0.00 0.00 70 1017.9
20260503203229 1 69 9.7 3.2 0.00 0.00 0.00 70 1017.9
20260503202729 1 51 6.4 9.7 0.00 0.00 0.00 71 1017.9
20260503202227 0 17 8.0 11.3 0.00 0.00 0.00 70 1017.8
20260503201727 1 34 4.8 4.8 0.00 0.00 0.00 71 1017.8
20260503201228 0 80 11.3 14.5 0.00 0.00 0.00 71 1017.7
20260503200728 0 65 9.7 11.3 0.00 0.00 0.00 71 1017.7
20260503200228 0 59 9.7 8.0 0.00 0.00 0.00 72 1017.7
20260503195729 0 15 9.7 8.0 0.00 0.00 0.00 72 1017.6
20260503195226 0 69 6.4 9.7 0.00 0.00 0.00 73 1017.6
20260503194727 0 63 8.0 11.3 0.00 0.00 0.00 73 1017.6
20260503194227 0 32 4.8 8.0 0.00 0.00 0.00 75 1017.6
20260503193728 0 38 12.9 11.3 0.00 0.00 0.00 73 1017.6
20260503193228 0 24 9.7 6.4 0.00 0.00 0.00 74 1017.6
20260503192728 0 49 9.7 8.0 0.00 0.00 0.00 74 1017.6
20260503192226 0 65 4.8 9.7 0.00 0.00 0.00 74 1017.6
20260503191727 0 18 8.0 11.3 0.00 0.00 0.00 74 1017.6
20260503191227 0 44 4.8 9.7 0.00 0.00 0.00 74 1017.5
20260503190727 0 55 8.0 8.0 0.00 0.00 0.00 74 1017.5
20260503190228 0 44 8.0 11.3 0.00 0.00 0.00 74 1017.4
20260503185728 0 27 8.0 9.7 0.00 0.00 0.00 75 1017.4
20260503185226 0 53 11.3 14.5 0.00 0.00 0.00 75 1017.3
20260503184726 0 84 11.3 8.0 0.00 0.00 0.00 75 1017.3
20260503184226 0 75 9.7 9.7 0.00 0.00 0.00 75 1017.2
20260503183727 -1 44 9.7 11.3 0.00 0.00 0.00 75 1017.2
20260503183227 0 70 8.0 16.1 0.00 0.00 0.00 76 1017.1
20260503182727 -1 76 6.4 8.0 0.00 0.00 0.00 76 1017.1
20260503182225 -1 59 8.0 6.4 0.00 0.00 0.00 77 1017.1
20260503181725 -1 4 11.3 12.9 0.00 0.00 0.00 77 1017.0
20260503181226 -1 30 12.9 9.7 0.00 0.00 0.00 76 1017.0
20260503180726 -1 35 9.7 8.0 0.00 0.00 0.00 77 1017.0
20260503180226 -1 76 6.4 8.0 0.00 0.00 0.00 77 1017.0
20260503175727 -1 60 8.0 6.4 0.00 0.00 0.00 77 1017.0
20260503175224 -1 32 6.4 9.7 0.00 0.00 0.00 78 1016.9
20260503174724 -1 55 11.3 12.9 0.00 0.00 0.00 77 1016.8
20260503174225 -1 86 8.0 12.9 0.00 0.00 0.00 78 1016.8
20260503173725 -1 93 3.2 1.6 0.00 0.00 0.00 79 1016.8
20260503173225 -1 31 4.8 11.3 0.00 0.00 0.00 78 1016.8
20260503172726 -1 24 6.4 11.3 0.00 0.00 0.00 79 1016.7
20260503172223 -1 73 6.4 8.0 0.00 0.00 0.00 79 1016.7
20260503171724 -2 25 8.0 9.7 0.00 0.00 0.00 79 1016.6
20260503171224 -2 42 8.0 8.0 0.00 0.00 0.00 79 1016.7
20260503170724 -1 77 9.7 4.8 0.00 0.00 0.00 80 1016.6
20260503170225 -2 37 8.0 11.3 0.00 0.00 0.00 79 1016.6
20260503150721 -2 56 8.0 9.7 0.00 0.00 0.00 82 1015.9
20260503150221 -2 66 6.4 9.7 0.00 0.00 0.00 83 1015.8
20260503140219 -3 98 6.4 4.8 0.00 0.00 0.00 85 1015.2
20260503131216 -3 72 8.0 3.2 0.00 0.00 0.00 90 1014.9
20260503130717 -3 49 9.7 9.7 0.00 0.00 0.00 90 1014.9
20260503130217 -3 48 6.4 11.3 0.00 0.00 0.00 90 1014.9
20260503120214 -3 80 9.7 9.7 0.00 0.00 0.00 91 1014.3
20260503110710 -2 65 8.0 9.7 0.00 0.00 0.00 91 1013.4
20260503110210 -2 55 9.7 14.5 0.00 0.00 0.00 91 1013.3
20260503100207 -2 86 9.7 8.0 0.00 0.00 0.00 89 1012.1
20260503090204 -1 94 6.4 4.8 0.00 0.00 0.00 88 1011.5
20260503081201 -1 35 8.0 9.7 0.00 0.00 0.00 88 1010.9
20260503080701 -1 107 4.8 3.2 0.00 0.00 0.00 88 1010.9
20260503080201 0 41 6.4 3.2 0.00 0.00 0.00 87 1010.9
20260503072700 0 68 9.7 9.7 0.00 0.00 0.00 87 1010.5
20260503072158 0 69 9.7 4.8 0.00 0.00 0.00 87 1010.4
20260503071658 0 136 9.7 4.8 0.00 0.00 0.00 86 1010.4
20260503071158 0 3 8.0 11.3 0.00 0.00 0.00 87 1010.4
20260503070659 0 79 9.7 12.9 0.00 0.00 0.00 87 1010.3
20260503070159 0 89 9.7 4.8 0.00 0.00 0.00 88 1010.2